Temp
79 78 81 81 80 55 68 72 61 66 77 73 64 67 72 70 60 48 60 55 56 63 60 63 66 69 69 74 75 76 75 77 75 69 69 70 75 78 78 77 75 73 73 73 75 78 79 82 83 83 81 84 83 82 82 81 81 81 80 80 81 81 80
79 83 82 82 82 79 71 63 66 77 82 79 67 56 56 58 52 51 59 51 53 54 48 63 65 66 69 73 75 76 75 74 73 73 73 74 75 76 77 76 74 73 74 75 76 76 77 77 77 76 76 81 84 84 83 82 82 81 81 81 82 82 80
78 83 81 75 79 81 71 69 79 65 55 57 60 59 51 52 50 47 53 57 57 57 53 62 63 65 68 70 73 73 72 73 73 74 74 73 72 70 71 73 74 76 77 75 75 77 76 76 75 77 79 80 81 82 84 85 83 83 83 84 83 83 82
75 77 70 56 64 77 81 80 72 77 67 61 57 60 61 60 49 48 45 48 45 56 58 64 64 66 68 69 70 70 71 71 72 72 72 71 70 70 73 73 75 75 75 76 76 75 75 73 76 78 78 77 77 79 81 83 84 84 83 83 83 82 83
74 60 65 61 64 63 65 66 64 68 68 74 68 67 63 55 50 48 44 42 48 53 57 61 66 68 69 70 69 69 70 71 72 72 71 70 72 73 73 73 74 74 74 77 77 74 75 76 77 79 79 76 78 79 79 80 81 82 81 81 79 78 80
59 63 72 74 74 73 69 65 62 65 63 60 54 50 71 68 55 45 47 42 52 61 66 63 64 71 72 73 71 69 70 71 70 72 72 73 73 72 72 73 73 74 74 74 74 75 76 75 76 76 77 79 78 79 80 79 73 78 78 77 77 76 75
62 71 76 80 79 78 74 71 66 71 68 65 58 43 52 59 57 62 54 48 49 62 63 65 66 73 74 73 72 70 71 71 71 72 73 74 73 72 71 71 72 74 74 72 73 72 73 74 74 75 76 75 75 75 75 75 75 75 75 76 78 76 75
72 75 80 78 79 76 71 72 73 71 65 68 62 58 60 56 56 52 49 46 49 63 62 66 67 68 75 74 73 72 71 71 71 71 72 72 72 70 71 70 72 72 73 74 74 73 73 73 74 74 74 75 76 76 76 75 74 75 76 77 77 76 76
53 59 61 64 72 73 66 65 70 73 72 74 70 68 63 54 58 56 50 42 48 59 64 63 65 67 74 73 74 73 70 71 71 71 72 72 71 69 68 69 70 71 71 72 72 71 72 72 72 72 74 74 74 75 76 76 75 76 76 76 77 77 77
39 40 43 46 50 58 65 71 72 72 73 68 62 52 54 43 52 57 51 49 55 64 67 66 67 67 68 74 73 73 73 71 71 71 72 72 72 69 68 68 70 70 69 71 71 71 71 71 71 71 72 73 74 74 75 78 77 77 78 78 78 77 78
47 48 48 62 66 64 59 67 71 73 73 72 66 56 53 46 53 53 55 55 55 59 63 61 67 71 71 71 72 72 71 71 71 71 72 73 72 72 70 68 70 70 70 69 70 72 75 75 74 74 73 73 74 73 73 75 76 77 77 79 78 78 78
58 64 64 68 70 65 66 67 68 70 69 68 64 55 52 56 54 43 55 58 57 60 64 65 67 71 70 71 71 72 72 71 72 71 71 73 73 73 72 71 71 70 70 71 70 71 72 74 77 75 75 75 74 74 74 75 76 76 77 78 78 78 77
67 69 67 69 69 68 67 68 69 67 68 67 64 60 65 61 52 49 56 59 59 63 67 69 69 70 70 71 73 74 74 74 73 72 72 73 73 73 72 71 71 71 71 70 70 70 72 72 73 76 76 76 76 75 75 75 75 76 76 77 78 78 76
65 67 67 69 67 67 68 68 68 68 69 68 67 66 68 65 58 62 61 60 63 66 68 70 71 73 72 71 71 74 75 74 73 74 72 72 73 73 73 72 72 72 72 71 69 70 70 71 72 73 74 76 76 75 75 75 74 75 75 76 76 76 75
59 65 68 68 67 66 63 66 68 68 68 67 68 69 67 67 65 66 64 59 54 61 69 69 72 73 74 72 69 71 72 73 73 72 73 73 72 72 72 72 72 72 72 71 69 69 69 70 72 72 73 74 76 78 78 77 76 75 76 75 75 75 74
51 62 64 65 66 66 63 62 64 65 64 60 65 62 67 63 59 62 61 55 55 63 70 71 70 69 68 65 65 66 68 72 71 70 71 72 71 71 70 70 70 70 72 70 69 68 69 71 71 71 71 73 74 74 76 77 78 76 74 74 74 74 74
49 60 65 64 64 61 53 54 61 65 65 65 69 69 70 69 68 61 55 53 63 66 69 67 68 69 67 66 66 66 67 68 69 68 68 70 71 71 69 69 69 69 69 70 70 71 71 69 69 70 71 71 71 72 73 74 76 76 74 75 74 73 73
48 60 62 62 54 42 42 62 69 67 66 66 63 64 67 67 68 61 66 65 67 69 69 67 67 67 66 66 67 68 66 66 68 69 69 68 69 69 70 70 69 68 67 68 70 70 70 72 74 72 71 73 73 73 74 74 74 74 73 73 73 74 73
48 54 56 48 40 42 61 66 69 71 72 70 67 68 69 69 70 69 66 66 66 67 69 70 69 69 70 72 70 71 71 69 69 69 69 68 67 67 67 67 69 67 67 67 68 69 71 73 72 72 72 73 73 73 73 73 74 74 73 72 71 72 73
54 48 46 34 40 58 65 66 68 70 71 69 69 63 67 69 69 69 66 67 68 69 70 70 71 71 73 72 71 72 71 70 69 70 70 71 70 68 68 67 66 66 67 67 68 69 72 72 71 71 71 73 72 70 71 71 71 72 71 71 71 72 72
44 49 47 48 56 58 59 62 64 64 58 59 55 48 56 66 69 69 67 67 69 69 70 71 72 73 72 67 66 73 73 72 72 72 72 73 72 71 69 70 68 68 68 68 69 69 70 71 71 71 71 72 72 71 70 70 70 69 69 69 70 71 72
55 46 43 44 42 41 47 60 66 71 72 68 64 57 54 66 69 70 68 65 67 69 70 70 70 70 64 58 60 69 73 74 73 74 74 74 73 73 71 70 70 68 68 69 71 69 68 69 69 69 71 72 70 69 69 69 69 68 68 68 69 70 72
48 47 42 42 41 44 50 57 63 69 69 68 63 52 48 61 67 70 69 68 67 67 66 66 67 61 54 53 59 67 72 72 72 72 72 73 72 72 70 69 69 69 67 69 71 70 69 69 69 70 69 70 70 68 69 68 68 67 67 67 68 69 70
47 46 44 41 48 44 56 61 65 67 69 68 57 41 42 59 67 70 70 68 66 66 67 66 62 57 53 54 59 69 71 70 70 69 68 69 70 70 71 70 69 67 68 68 69 69 69 67 70 70 72 71 70 69 68 67 67 67 66 67 68 68 69
47 50 45 49 49 57 63 62 66 66 70 62 44 36 48 60 64 67 68 67 67 67 65 63 57 59 61 63 67 70 71 70 69 69 70 70 70 69 70 69 71 68 68 67 67 68 66 67 70 70 69 69 67 68 68 66 67 68 68 68 69 69 69
44 46 44 44 49 58 61 61 64 63 59 43 40 54 61 62 64 66 68 66 67 67 64 63 61 63 68 69 69 68 68 68 67 68 68 69 69 70 69 70 69 67 67 66 67 68 68 70 70 69 68 66 65 65 65 65 67 71 69 69 69 68 68
50 49 44 41 34 52 65 61 61 60 48 48 58 61 63 65 64 65 66 67 65 66 64 65 64 66 66 67 66 66 66 66 65 65 65 64 65 65 65 66 68 68 64 64 66 67 69 69 68 68 67 64 64 65 63 65 68 69 69 70 69 69 68
40 42 41 40 49 56 63 59 50 56 57 60 61 60 58 64 63 62 61 63 65 66 64 64 64 65 64 64 65 64 64 66 66 65 64 63 64 66 68 67 66 67 63 63 64 66 67 66 66 66 64 63 64 64 62 66 67 69 68 69 69 69 69
49 46 48 52 57 61 64 62 59 61 62 63 63 63 61 60 61 64 61 62 64 65 64 63 63 63 64 64 65 63 63 64 63 63 63 63 62 63 63 64 65 64 63 61 62 63 64 64 64 63 64 62 63 62 63 66 66 66 67 67 68 68 67
60 61 60 62 62 63 63 66 65 63 64 65 65 64 60 61 62 62 62 64 65 65 64 61 60 61 63 64 64 64 63 63 63 62 62 62 62 63 62 62 63 63 63 62 62 61 62 63 63 63 62 62 61 61 63 65 66 66 66 66 66 66 67
49 45 56 59 60 63 64 64 65 65 63 63 63 62 61 63 64 65 66 64 64 64 63 61 59 62 64 63 62 61 60 61 61 61 60 60 60 59 59 61 63 60 61 60 60 60 60 61 62 64 64 64 63 62 62 65 66 64 65 65 65 66 65
49 52 56 59 62 62 65 64 62 62 63 63 64 63 63 63 64 66 65 66 65 65 62 61 60 61 63 61 59 60 60 60 59 59 59 58 58 59 61 61 61 60 59 58 58 59 59 60 61 62 62 61 62 63 64 64 64 63 63 64 64 65 66
56 60 58 59 61 62 62 64 64 64 64 63 63 64 64 64 63 65 65 65 65 65 63 63 61 60 62 61 60 60 59 59 58 58 58 58 58 59 59 59 60 57 58 58 58 60 59 60 60 60 61 62 63 63 63 64 63 62 62 64 64 64 66
50 47 50 55 51 50 55 59 61 62 63 63 62 63 63 63 62 62 63 64 65 68 67 65 64 61 59 61 60 59 58 58 58 58 57 58 59 58 58 58 58 59 60 59 59 59 58 59 59 60 60 61 62 64 63 63 63 62 62 62 62 62 64
46 53 56 55 55 54 56 58 60 62 63 62 61 61 61 61 62 63 62 62 61 62 64 65 64 61 60 59 61 60 60 58 58 58 58 58 56 56 57 57 57 57 57 60 58 58 57 59 59 59 59 61 61 63 63 63 62 61 61 61 62 61 64
56 57 56 57 55 53 56 60 61 61 61 61 61 62 63 63 64 63 63 63 63 61 63 64 65 62 62 62 61 59 59 59 59 59 58 58 57 58 59 57 56 57 57 57 57 57 57 58 58 58 59 61 61 62 63 62 62 61 60 61 60 60 62
51 58 58 58 58 57 60 61 62 62 62 61 59 59 59 61 62 65 64 63 63 63 61 62 65 65 63 63 62 60 59 60 60 60 60 60 60 59 57 58 57 57 55 56 55 56 56 57 58 59 59 60 62 63 62 62 62 61 61 60 60 60 62
MSLP
1005.90 1006.10 1005.66 1006.10 1006.02 1012.98 1008.70 1008.26 1011.02 1009.46 1006.18 1008.06 1011.02 1010.66 1009.90 1010.42 1012.78 1019.62 1016.38 1018.62 1018.46 1017.18 1017.70 1017.74 1016.50 1015.30 1015.14 1014.34 1014.38 1014.38 1014.50 1014.02 1014.30 1015.86 1016.42 1016.30 1015.10 1014.14 1013.90 1014.02 1014.30 1014.54 1014.70 1014.94 1014.50 1014.30 1013.98 1014.02 1014.22 1014.30 1014.30 1014.06 1014.46 1014.98 1015.46 1015.94 1016.22 1016.42 1016.70 1016.86 1017.02 1017.18 1017.42
1005.90 1004.78 1005.02 1005.46 1005.26 1006.06 1008.78 1010.94 1009.70 1007.22 1005.14 1006.58 1010.14 1014.34 1012.86 1013.50 1016.26 1018.98 1016.62 1018.94 1019.86 1018.86 1021.70 1017.90 1016.94 1016.02 1015.34 1014.54 1014.26 1014.10 1014.22 1014.82 1015.26 1015.38 1015.26 1014.98 1014.82 1014.50 1013.98 1014.10 1014.66 1014.86 1015.10 1014.78 1014.26 1014.14 1014.10 1014.34 1014.42 1014.14 1014.42 1014.38 1013.82 1014.10 1014.74 1015.38 1015.82 1016.26 1016.38 1016.58 1016.86 1017.02 1017.30
1006.26 1004.90 1005.94 1007.14 1005.74 1005.54 1008.74 1009.86 1006.78 1010.10 1012.54 1012.70 1010.94 1011.94 1015.30 1015.34 1017.46 1020.02 1018.46 1017.30 1017.66 1017.62 1019.10 1017.22 1017.02 1016.10 1015.38 1014.90 1014.46 1014.70 1015.14 1015.18 1015.34 1015.26 1015.22 1015.30 1015.58 1015.90 1015.10 1014.90 1014.94 1014.90 1014.82 1014.74 1014.58 1014.46 1014.54 1015.10 1014.78 1013.94 1014.22 1014.62 1014.26 1014.26 1014.30 1014.62 1015.30 1015.46 1015.70 1016.02 1016.34 1016.58 1016.86
1006.78 1006.82 1007.98 1011.74 1009.74 1006.66 1006.10 1006.34 1008.22 1007.02 1009.54 1011.82 1012.66 1011.34 1011.02 1011.86 1017.54 1019.74 1022.22 1021.82 1021.62 1018.70 1018.02 1016.30 1016.46 1015.54 1015.10 1015.14 1015.34 1015.54 1015.54 1015.74 1015.70 1015.66 1015.86 1015.86 1015.98 1016.14 1015.58 1015.38 1015.06 1014.94 1014.82 1014.86 1014.98 1015.38 1015.66 1015.70 1015.30 1015.02 1015.14 1014.90 1014.70 1014.30 1014.38 1014.66 1014.78 1014.98 1015.34 1015.66 1015.94 1016.46 1016.58
1007.42 1010.82 1009.26 1010.54 1009.82 1010.78 1010.06 1010.14 1010.42 1009.30 1009.50 1007.22 1008.54 1008.94 1010.22 1012.14 1015.74 1018.62 1020.74 1021.90 1020.02 1019.30 1018.58 1017.62 1015.94 1015.42 1015.10 1015.06 1015.54 1015.62 1015.86 1015.78 1015.70 1015.74 1015.98 1015.98 1015.78 1015.82 1015.90 1015.70 1015.54 1015.34 1015.18 1014.86 1014.90 1015.10 1015.18 1015.18 1015.18 1015.22 1015.34 1015.22 1014.54 1014.58 1014.70 1014.82 1015.06 1015.18 1015.46 1015.62 1015.90 1016.26 1016.42
1010.62 1010.02 1008.06 1007.98 1008.26 1008.54 1009.26 1009.78 1010.46 1009.78 1010.66 1011.70 1013.18 1013.62 1008.42 1009.30 1013.26 1018.34 1018.70 1021.58 1019.90 1018.30 1016.94 1017.46 1017.06 1014.90 1014.66 1014.66 1015.02 1015.82 1015.90 1016.02 1016.10 1016.02 1016.10 1015.98 1016.06 1016.22 1016.38 1016.30 1015.90 1015.46 1015.38 1015.42 1015.46 1015.46 1015.42 1015.50 1015.82 1015.86 1015.78 1015.86 1015.74 1015.50 1015.22 1015.42 1016.42 1016.10 1015.94 1016.10 1016.26 1016.34 1016.34
1010.54 1008.74 1007.18 1006.58 1006.74 1007.10 1008.02 1008.58 1010.02 1008.14 1008.58 1008.66 1011.54 1015.46 1013.58 1013.14 1014.50 1013.58 1015.86 1018.94 1021.06 1017.70 1017.18 1017.02 1016.90 1014.78 1014.62 1014.74 1015.06 1015.74 1015.86 1016.10 1016.18 1016.26 1016.14 1016.14 1016.26 1016.46 1016.70 1016.78 1016.54 1016.06 1015.86 1015.86 1016.02 1016.06 1015.78 1015.86 1015.98 1016.10 1016.10 1016.38 1016.82 1016.78 1016.54 1016.66 1017.14 1017.42 1017.26 1016.94 1016.38 1016.38 1016.54
1007.46 1007.02 1006.50 1006.42 1006.62 1007.54 1008.78 1008.10 1007.82 1008.38 1010.30 1010.42 1011.42 1012.30 1012.70 1014.62 1015.34 1016.46 1017.06 1019.78 1020.82 1017.46 1017.30 1016.74 1016.74 1016.10 1014.50 1014.86 1015.02 1015.46 1015.90 1016.14 1016.38 1016.46 1016.50 1016.66 1016.82 1016.90 1016.86 1016.70 1016.66 1016.50 1016.14 1016.06 1016.18 1016.26 1016.38 1016.14 1016.02 1016.18 1016.22 1016.22 1016.30 1015.90 1015.94 1016.22 1016.42 1016.58 1016.74 1016.58 1016.34 1016.38 1016.46
1011.78 1011.06 1009.34 1009.30 1008.22 1008.34 1009.82 1010.02 1008.30 1008.22 1008.06 1008.34 1008.90 1009.74 1010.58 1013.86 1014.98 1015.78 1017.70 1021.98 1020.46 1018.66 1017.58 1016.98 1017.10 1016.38 1015.10 1015.34 1015.38 1015.54 1016.30 1016.38 1016.46 1016.54 1016.62 1016.82 1017.06 1017.42 1017.54 1017.38 1017.18 1016.86 1016.58 1016.46 1016.50 1016.46 1016.38 1016.34 1016.34 1016.46 1016.62 1016.82 1017.06 1016.50 1015.78 1015.86 1015.94 1015.98 1016.18 1016.18 1016.26 1016.26 1016.38
1017.14 1017.46 1017.14 1015.46 1013.26 1011.38 1009.94 1009.06 1008.90 1008.22 1009.06 1010.50 1010.66 1013.62 1013.98 1015.74 1015.22 1014.78 1017.38 1019.78 1018.34 1016.86 1016.38 1017.18 1017.22 1017.14 1016.26 1015.30 1015.50 1015.70 1015.82 1016.34 1016.66 1016.74 1016.90 1017.10 1017.26 1017.82 1018.10 1017.90 1017.50 1017.50 1017.42 1017.14 1016.94 1017.18 1017.14 1017.14 1017.22 1017.38 1017.42 1017.46 1017.22 1016.70 1016.02 1015.46 1015.66 1015.86 1015.94 1016.02 1016.14 1016.22 1016.26
1015.70 1014.62 1013.46 1011.34 1010.74 1010.42 1011.82 1010.22 1009.30 1009.26 1009.30 1009.58 1010.50 1011.82 1014.06 1016.18 1015.50 1016.18 1016.22 1016.62 1018.46 1018.18 1017.70 1018.34 1017.02 1015.98 1015.74 1015.74 1015.54 1015.98 1016.42 1016.50 1016.46 1016.58 1016.90 1017.30 1017.54 1017.74 1018.14 1018.30 1017.90 1017.66 1017.62 1017.70 1017.62 1017.30 1017.02 1016.90 1017.02 1016.90 1017.10 1016.98 1016.82 1016.78 1016.66 1016.06 1015.74 1015.78 1015.74 1015.70 1015.94 1016.14 1016.26
1012.62 1011.54 1011.74 1011.06 1010.22 1011.50 1011.18 1010.90 1009.98 1009.58 1010.30 1010.46 1011.38 1012.90 1015.06 1013.62 1015.50 1018.98 1016.58 1015.82 1016.94 1017.10 1016.94 1017.22 1016.78 1015.58 1015.38 1015.42 1015.66 1015.90 1016.18 1016.54 1016.70 1016.78 1016.82 1017.10 1017.46 1017.70 1017.90 1018.02 1017.94 1018.14 1018.06 1017.98 1017.90 1017.74 1017.58 1017.34 1016.74 1016.74 1016.58 1016.46 1016.54 1016.54 1016.58 1016.22 1015.86 1015.90 1016.14 1015.98 1015.90 1016.06 1016.18
1011.46 1010.90 1010.98 1010.58 1010.70 1010.98 1011.14 1010.54 1010.62 1010.82 1010.22 1010.86 1012.10 1012.46 1012.02 1013.38 1015.58 1017.90 1016.34 1015.62 1016.42 1016.18 1015.54 1015.42 1015.42 1015.26 1015.38 1015.46 1015.46 1015.50 1015.78 1016.22 1016.46 1016.58 1016.90 1017.18 1017.50 1017.78 1018.06 1018.10 1018.06 1018.10 1018.18 1018.22 1018.18 1018.06 1017.86 1017.62 1017.50 1017.06 1016.78 1016.74 1016.62 1016.82 1016.66 1016.50 1016.26 1016.14 1015.98 1015.98 1016.06 1016.26 1016.42
1012.22 1011.22 1011.10 1010.98 1011.82 1011.54 1011.38 1011.06 1011.30 1010.86 1011.10 1011.34 1011.34 1011.82 1012.02 1012.74 1014.26 1014.30 1014.86 1015.26 1015.94 1015.26 1015.38 1015.02 1014.82 1014.46 1014.82 1015.10 1014.98 1015.14 1015.62 1016.14 1016.30 1016.54 1017.06 1017.50 1017.74 1017.98 1018.14 1018.30 1018.30 1018.22 1018.14 1018.22 1018.26 1018.22 1018.10 1017.98 1017.86 1017.70 1017.38 1017.02 1016.98 1017.06 1017.06 1016.86 1016.94 1016.62 1016.38 1016.38 1016.54 1016.74 1016.90
1013.74 1012.02 1011.26 1011.26 1011.66 1011.94 1012.66 1011.58 1011.30 1011.50 1011.58 1011.58 1011.50 1011.70 1012.66 1012.62 1013.74 1013.86 1014.62 1016.22 1018.74 1016.78 1014.78 1015.10 1014.54 1014.46 1014.58 1015.22 1015.98 1016.06 1015.98 1016.18 1016.54 1016.90 1017.26 1017.66 1018.10 1018.30 1018.38 1018.42 1018.46 1018.42 1018.34 1018.26 1018.30 1018.30 1018.26 1018.14 1018.10 1018.06 1017.94 1017.66 1017.38 1017.18 1017.02 1016.98 1017.02 1016.82 1016.58 1016.82 1016.90 1016.98 1017.18
1015.30 1013.02 1012.50 1012.18 1012.18 1012.30 1012.66 1012.86 1012.38 1012.30 1012.62 1013.34 1012.34 1012.50 1012.22 1013.14 1014.74 1014.70 1015.50 1017.50 1018.26 1016.30 1014.82 1014.82 1015.02 1015.38 1016.14 1016.98 1017.02 1017.02 1016.90 1016.74 1017.10 1017.50 1017.74 1017.98 1018.42 1018.78 1018.94 1018.90 1018.78 1018.70 1018.62 1018.54 1018.42 1018.46 1018.38 1018.26 1018.22 1018.22 1018.26 1018.10 1017.98 1017.90 1017.50 1017.26 1017.18 1017.02 1017.10 1017.18 1017.26 1017.30 1017.38
1015.94 1013.58 1012.74 1012.58 1012.46 1013.30 1014.70 1014.34 1012.98 1012.30 1011.90 1011.86 1011.54 1011.30 1011.02 1011.86 1012.74 1014.98 1017.10 1017.58 1015.70 1015.22 1014.78 1015.62 1015.98 1016.02 1016.50 1016.86 1017.06 1017.10 1017.34 1017.54 1017.70 1018.06 1018.26 1018.42 1018.58 1018.90 1019.14 1019.26 1019.22 1019.06 1018.94 1018.74 1018.54 1018.42 1018.34 1018.26 1018.22 1018.10 1018.10 1018.26 1018.30 1018.10 1017.94 1017.70 1017.38 1017.34 1017.38 1017.38 1017.46 1017.50 1017.46
1015.58 1014.02 1013.46 1012.54 1014.38 1017.62 1016.98 1012.78 1011.50 1011.42 1012.34 1012.02 1013.10 1012.78 1012.50 1012.54 1012.06 1013.82 1013.78 1014.42 1014.22 1014.46 1014.98 1015.62 1016.14 1016.46 1016.74 1016.70 1016.70 1016.38 1017.22 1017.74 1017.94 1018.06 1018.22 1018.46 1018.70 1018.94 1019.14 1019.26 1019.34 1019.18 1018.94 1018.74 1018.46 1018.34 1018.30 1018.22 1018.06 1017.94 1017.90 1018.10 1018.10 1017.86 1017.74 1017.54 1017.58 1017.66 1017.66 1017.74 1017.74 1017.74 1017.62
1016.46 1015.34 1014.50 1015.46 1018.34 1017.42 1012.62 1011.14 1010.94 1010.82 1010.42 1010.82 1011.82 1011.62 1011.90 1012.02 1012.10 1012.78 1014.30 1014.58 1014.62 1014.66 1014.66 1014.90 1015.34 1015.66 1015.86 1016.06 1016.46 1016.54 1016.50 1016.98 1017.62 1018.18 1018.46 1018.78 1018.90 1019.10 1019.34 1019.46 1019.38 1019.22 1018.98 1018.78 1018.58 1018.46 1018.38 1018.18 1018.06 1018.02 1018.06 1018.06 1018.10 1018.02 1017.90 1017.94 1017.90 1017.98 1017.98 1017.98 1017.98 1017.98 1017.94
1015.14 1015.90 1015.94 1018.70 1017.90 1013.90 1012.22 1011.74 1011.18 1010.46 1010.34 1010.66 1011.42 1013.86 1012.98 1012.18 1012.62 1012.94 1014.14 1014.42 1014.34 1014.30 1014.58 1014.86 1014.94 1015.38 1015.62 1016.02 1016.26 1016.34 1016.70 1016.90 1017.34 1017.94 1018.54 1018.66 1018.78 1019.22 1019.30 1019.38 1019.38 1019.26 1019.10 1018.94 1018.74 1018.62 1018.34 1018.22 1018.14 1018.06 1018.18 1018.06 1018.30 1018.42 1018.18 1018.34 1018.38 1018.34 1018.34 1018.30 1018.14 1017.94 1017.94
1017.26 1016.22 1016.50 1016.10 1014.50 1014.18 1013.62 1013.02 1012.78 1012.54 1013.46 1013.34 1014.02 1016.26 1015.30 1013.02 1012.78 1012.98 1013.90 1014.14 1014.30 1014.66 1014.66 1014.98 1015.26 1015.38 1016.02 1017.26 1017.46 1016.42 1016.62 1017.02 1017.10 1017.54 1017.98 1018.22 1018.50 1018.74 1019.06 1019.14 1019.30 1019.06 1018.90 1018.82 1018.66 1018.62 1018.66 1018.46 1018.38 1018.30 1018.14 1018.14 1018.34 1018.46 1018.54 1018.58 1018.62 1018.70 1018.66 1018.66 1018.46 1018.22 1018.14
1015.06 1016.82 1017.46 1016.90 1017.46 1018.22 1016.18 1013.46 1011.86 1011.06 1011.38 1011.78 1012.38 1013.46 1015.90 1013.18 1013.02 1012.78 1013.50 1014.38 1014.54 1014.74 1015.02 1015.34 1015.62 1016.06 1017.70 1019.14 1018.58 1017.18 1016.78 1016.90 1017.30 1017.34 1017.66 1017.90 1018.10 1018.34 1018.86 1019.14 1019.18 1019.10 1018.94 1018.74 1018.54 1018.74 1018.90 1018.70 1018.42 1018.30 1018.18 1018.22 1018.46 1018.70 1018.74 1018.74 1018.90 1019.02 1018.98 1019.02 1018.82 1018.62 1018.42
1017.02 1016.70 1017.90 1017.90 1018.58 1018.42 1016.22 1014.30 1012.74 1012.06 1011.34 1011.66 1012.02 1014.34 1017.10 1014.06 1013.14 1013.10 1013.30 1014.14 1014.54 1015.14 1015.78 1015.86 1015.82 1017.10 1019.34 1019.74 1018.66 1017.30 1016.94 1017.18 1017.30 1017.82 1018.10 1018.10 1018.18 1018.58 1018.98 1019.10 1019.26 1019.14 1018.98 1018.82 1018.82 1018.90 1019.02 1019.10 1018.74 1018.46 1018.42 1018.50 1018.74 1018.98 1018.94 1018.90 1018.98 1019.18 1019.18 1019.06 1018.98 1018.90 1018.74
1016.82 1017.10 1017.46 1018.14 1017.50 1017.66 1014.98 1013.46 1012.90 1012.42 1012.06 1011.98 1013.74 1018.78 1018.74 1014.54 1013.06 1013.02 1013.26 1013.98 1014.98 1015.42 1015.38 1015.70 1016.54 1017.70 1019.90 1019.94 1019.02 1017.46 1017.42 1017.70 1017.82 1018.02 1018.38 1018.46 1018.50 1018.70 1018.78 1018.82 1018.86 1018.90 1018.98 1019.06 1019.18 1019.34 1019.38 1019.38 1019.10 1018.94 1018.86 1018.90 1019.06 1019.22 1019.22 1019.10 1019.22 1019.30 1019.18 1018.98 1018.78 1018.66 1018.54
1016.78 1016.78 1017.02 1016.38 1017.26 1014.94 1013.70 1013.42 1012.70 1012.46 1012.14 1013.62 1017.62 1019.94 1017.38 1014.50 1013.50 1012.98 1013.66 1014.78 1015.14 1015.26 1015.70 1016.30 1017.94 1018.02 1017.82 1017.90 1017.58 1017.46 1017.54 1017.86 1018.14 1018.06 1018.22 1018.46 1018.62 1018.86 1018.86 1018.90 1018.82 1019.10 1019.26 1019.38 1019.54 1019.54 1019.50 1019.42 1019.34 1019.26 1019.30 1019.38 1019.54 1019.54 1019.46 1019.54 1019.58 1019.34 1018.98 1018.82 1018.74 1018.66 1018.54
1017.42 1016.70 1017.22 1017.30 1016.74 1014.70 1013.78 1013.66 1013.38 1013.06 1014.42 1018.10 1019.10 1016.42 1014.78 1014.62 1014.38 1014.06 1014.22 1015.06 1015.26 1015.58 1016.34 1016.74 1017.18 1017.30 1017.14 1017.34 1017.46 1017.86 1018.14 1018.34 1018.58 1018.66 1018.70 1018.82 1018.94 1018.90 1018.90 1019.14 1019.34 1019.50 1019.50 1019.50 1019.54 1019.58 1019.50 1019.50 1019.54 1019.54 1019.62 1019.82 1019.86 1019.78 1019.78 1019.82 1019.58 1019.10 1018.90 1018.82 1018.78 1018.70 1018.66
1016.26 1016.46 1017.42 1017.66 1020.02 1015.38 1013.42 1013.70 1013.98 1014.30 1016.54 1017.26 1015.78 1015.18 1014.94 1014.46 1014.90 1014.90 1014.98 1015.02 1015.42 1015.66 1016.50 1016.34 1016.78 1017.34 1017.62 1017.86 1018.10 1018.18 1018.34 1018.66 1019.02 1019.26 1019.34 1019.50 1019.58 1019.58 1019.66 1019.82 1019.74 1019.82 1020.10 1020.14 1020.02 1019.86 1019.70 1019.70 1019.74 1019.78 1019.86 1020.06 1020.02 1019.94 1020.02 1019.90 1019.46 1019.18 1018.98 1018.86 1018.82 1018.74 1018.66
1017.38 1017.34 1018.18 1018.30 1016.10 1014.86 1013.54 1014.14 1017.10 1016.10 1015.46 1014.98 1014.86 1015.06 1015.58 1014.98 1015.02 1015.54 1015.62 1015.50 1015.42 1015.66 1016.14 1016.58 1017.06 1017.38 1017.74 1017.98 1018.22 1018.42 1018.54 1018.74 1019.18 1019.38 1019.54 1019.62 1019.70 1019.78 1019.82 1019.98 1020.14 1020.18 1020.38 1020.34 1020.34 1020.18 1020.10 1019.98 1019.90 1019.86 1019.94 1020.18 1020.22 1020.22 1020.38 1019.94 1019.66 1019.38 1019.22 1019.06 1018.94 1018.78 1018.74
1016.46 1017.78 1016.86 1015.58 1014.54 1014.30 1014.18 1014.42 1015.14 1014.94 1014.62 1014.38 1014.46 1014.82 1015.22 1015.38 1015.58 1015.18 1015.74 1015.98 1015.98 1016.06 1016.42 1016.82 1017.22 1017.62 1017.70 1017.98 1018.10 1018.58 1018.74 1019.10 1019.34 1019.54 1019.74 1019.90 1020.06 1020.14 1020.26 1020.42 1020.34 1020.42 1020.54 1020.62 1020.58 1020.50 1020.38 1020.26 1020.22 1020.14 1020.10 1020.30 1020.34 1020.46 1020.26 1019.90 1019.82 1019.70 1019.50 1019.30 1019.18 1019.02 1018.86
1014.14 1014.02 1014.30 1014.34 1014.02 1014.18 1014.62 1014.30 1014.34 1014.82 1014.78 1014.42 1014.50 1014.90 1015.58 1015.42 1015.26 1015.34 1015.86 1015.86 1016.22 1016.34 1016.42 1017.18 1017.62 1017.70 1017.74 1017.94 1018.14 1018.38 1018.70 1019.10 1019.18 1019.38 1019.62 1019.82 1019.94 1020.10 1020.26 1020.46 1020.50 1020.58 1020.58 1020.62 1020.70 1020.78 1020.66 1020.50 1020.42 1020.30 1020.26 1020.30 1020.54 1020.42 1020.10 1019.94 1019.82 1019.74 1019.70 1019.66 1019.46 1019.26 1018.98
1015.66 1017.46 1014.78 1014.26 1014.46 1014.06 1014.54 1014.82 1014.62 1014.50 1014.62 1014.82 1014.74 1015.10 1015.46 1015.42 1015.30 1015.54 1015.62 1015.82 1016.18 1016.46 1016.74 1017.22 1017.66 1017.78 1017.74 1017.98 1018.30 1018.62 1018.82 1019.02 1019.30 1019.54 1019.78 1019.94 1020.10 1020.30 1020.54 1020.50 1020.54 1020.66 1020.74 1020.90 1020.94 1020.94 1020.94 1020.70 1020.54 1020.42 1020.38 1020.26 1020.22 1020.10 1020.02 1019.90 1019.82 1019.78 1019.78 1019.70 1019.58 1019.30 1019.10
1016.18 1016.50 1015.26 1014.54 1014.02 1013.86 1014.02 1014.66 1015.10 1015.22 1015.10 1014.98 1015.10 1015.26 1015.38 1015.50 1015.46 1015.62 1015.90 1015.98 1016.50 1016.58 1017.10 1017.30 1017.62 1017.86 1017.86 1018.22 1018.66 1018.78 1018.94 1019.18 1019.42 1019.66 1019.86 1020.10 1020.18 1020.26 1020.30 1020.34 1020.42 1020.58 1020.74 1020.90 1020.98 1020.98 1020.98 1020.78 1020.58 1020.46 1020.34 1020.26 1020.06 1019.94 1019.86 1019.78 1019.78 1019.82 1019.86 1019.78 1019.66 1019.46 1019.22
1015.14 1014.70 1014.98 1014.98 1014.34 1014.38 1014.30 1014.14 1014.42 1014.70 1014.82 1015.10 1015.30 1015.30 1015.50 1015.54 1015.86 1016.02 1015.94 1016.02 1016.42 1016.70 1017.02 1017.18 1017.54 1017.98 1018.10 1018.26 1018.46 1018.70 1018.98 1019.26 1019.54 1019.78 1019.94 1020.10 1020.22 1020.30 1020.42 1020.50 1020.58 1020.78 1020.78 1020.86 1020.86 1020.90 1020.86 1020.70 1020.62 1020.62 1020.50 1020.30 1020.06 1019.90 1019.78 1019.66 1019.66 1019.82 1019.86 1019.74 1019.62 1019.46 1019.22
1016.62 1017.62 1017.26 1016.26 1016.50 1017.06 1016.10 1015.58 1015.26 1015.10 1014.86 1014.98 1015.42 1015.42 1015.58 1015.62 1015.90 1015.98 1016.22 1016.22 1016.06 1016.26 1016.46 1016.90 1017.30 1017.90 1018.06 1018.10 1018.34 1018.90 1019.22 1019.34 1019.46 1019.74 1019.98 1020.10 1020.22 1020.34 1020.46 1020.50 1020.62 1020.66 1020.66 1020.70 1020.70 1020.74 1020.82 1020.82 1020.78 1020.74 1020.66 1020.50 1020.30 1020.02 1019.74 1019.62 1019.58 1019.70 1019.70 1019.74 1019.70 1019.58 1019.34
1017.98 1017.22 1016.50 1016.22 1016.10 1016.18 1016.34 1016.14 1015.62 1015.38 1015.30 1015.34 1015.54 1015.78 1015.94 1015.94 1015.82 1015.82 1016.14 1016.50 1016.46 1016.46 1016.42 1016.54 1017.06 1017.50 1017.78 1018.06 1018.18 1018.62 1018.90 1019.30 1019.42 1019.54 1019.74 1020.02 1020.30 1020.46 1020.50 1020.58 1020.62 1020.62 1020.54 1020.54 1020.70 1020.90 1020.94 1020.90 1020.90 1020.86 1020.74 1020.54 1020.34 1020.06 1019.86 1019.66 1019.54 1019.58 1019.54 1019.62 1019.62 1019.58 1019.42
1016.74 1016.74 1016.58 1016.26 1016.38 1016.82 1016.42 1015.78 1015.58 1015.42 1015.30 1015.54 1015.94 1015.86 1015.66 1015.66 1015.66 1015.78 1015.94 1016.06 1016.42 1016.58 1016.50 1016.46 1016.54 1017.10 1017.46 1017.74 1017.98 1018.38 1018.58 1018.82 1019.06 1019.30 1019.54 1019.86 1020.06 1020.18 1020.26 1020.38 1020.38 1020.46 1020.62 1020.74 1020.90 1021.06 1021.02 1020.98 1020.94 1020.78 1020.66 1020.46 1020.22 1019.94 1019.70 1019.54 1019.42 1019.46 1019.46 1019.54 1019.58 1019.46 1019.30
1017.10 1016.42 1016.46 1016.38 1016.26 1016.34 1016.02 1015.86 1015.58 1015.46 1015.30 1015.58 1015.90 1016.10 1016.18 1016.14 1015.90 1015.70 1015.86 1015.94 1015.90 1016.22 1016.54 1016.66 1016.50 1016.54 1016.94 1017.30 1017.50 1017.90 1018.34 1018.54 1018.70 1018.98 1019.34 1019.58 1019.78 1019.98 1020.06 1020.06 1020.22 1020.46 1020.58 1020.66 1020.78 1020.86 1020.94 1020.98 1020.90 1020.78 1020.62 1020.42 1020.22 1020.02 1019.82 1019.62 1019.50 1019.46 1019.38 1019.38 1019.38 1019.34 1019.18
Wind_Speed
9 4 3 6 3 1 3 3 2 2 3 3 0 2 8 8 4 4 2 8 9 7 10 10 3 8 5 8 11 10 7 6 7 10 5 3 6 5 3 3 4 8 10 9 5 3 4 3 4 1 2 13 14 14 14 13 12 10 9 9 10 8 8
5 1 3 6 4 4 0 3 3 10 4 2 1 2 3 1 3 1 6 16 13 12 7 10 10 7 8 9 9 10 8 10 11 7 4 3 3 4 6 7 8 7 7 5 4 0 0 3 7 5 5 6 11 16 16 15 14 13 11 10 9 9 9
4 1 0 5 7 5 2 3 5 1 1 4 0 2 3 0 5 4 2 8 13 1 9 12 13 11 12 10 10 9 11 11 10 9 11 13 11 7 8 8 5 2 3 5 2 1 6 6 2 4 2 5 2 5 13 15 15 14 14 11 9 8 8
3 1 5 2 5 2 2 4 6 2 1 3 1 4 1 0 6 8 1 7 3 4 1 11 12 11 10 12 11 11 11 12 9 9 9 7 8 8 5 4 4 3 2 4 5 7 9 9 7 4 6 4 3 5 9 9 11 12 12 11 10 9 8
2 4 3 4 2 1 3 3 4 2 2 0 1 2 5 3 5 6 7 4 2 1 4 5 11 10 9 11 11 11 10 10 11 11 10 7 6 9 8 9 9 7 5 4 6 7 5 3 2 4 4 7 5 2 4 3 8 11 10 8 7 6 4
5 1 3 4 5 5 2 4 6 5 3 6 4 6 3 4 6 7 9 4 5 3 5 9 4 8 13 11 14 12 13 12 10 10 12 10 9 10 11 10 10 9 8 9 9 7 4 4 6 10 6 3 1 1 1 6 7 3 5 5 5 4 5
7 7 5 7 2 2 3 2 2 3 3 3 1 1 6 10 5 9 6 11 2 0 3 6 5 9 12 13 13 13 12 12 11 11 12 11 10 11 11 10 9 9 8 6 9 9 8 6 6 4 5 5 4 6 8 9 5 9 8 4 2 3 5
4 6 9 4 1 4 3 3 4 4 2 9 5 3 5 8 7 8 3 5 5 6 4 2 1 1 15 11 11 12 11 11 11 12 12 11 11 11 10 9 9 8 7 5 7 9 7 6 6 6 4 2 1 6 8 8 9 11 8 6 4 5 5
2 8 8 8 7 3 1 3 3 4 2 6 1 4 1 5 4 14 6 7 4 5 9 4 5 4 13 15 13 12 12 10 11 12 12 10 10 11 9 9 9 11 11 10 10 9 7 7 6 4 2 4 2 2 3 6 6 7 7 5 5 5 5
3 2 1 2 2 4 3 4 6 3 10 12 7 5 5 6 4 4 8 7 6 7 11 11 13 9 11 14 15 13 11 12 12 11 12 9 10 10 9 8 10 11 9 8 7 7 5 6 4 5 5 3 1 2 2 4 4 5 6 6 6 3 3
2 2 4 6 7 3 3 4 3 6 11 7 4 3 6 4 2 5 7 18 13 13 10 7 6 9 12 13 11 13 13 11 11 12 12 11 9 10 11 8 8 9 10 11 10 7 5 5 6 5 4 3 5 6 7 4 3 4 3 5 6 6 4
2 4 6 9 7 5 9 9 2 5 7 5 3 5 4 5 11 6 3 16 17 15 17 15 11 9 10 11 10 11 12 11 10 11 12 13 12 11 9 9 10 10 9 10 9 9 10 9 6 8 5 6 6 7 6 5 6 6 3 1 4 5 5
3 6 3 4 7 8 11 9 6 1 4 5 3 3 3 10 8 10 9 9 14 13 13 14 11 9 10 10 11 12 13 13 11 11 12 12 13 12 11 10 9 9 10 8 9 9 9 10 11 9 7 6 5 6 7 6 6 6 5 5 6 5 4
6 5 2 8 10 6 9 7 9 7 9 7 3 2 6 10 9 15 12 10 12 11 13 12 11 9 11 10 8 8 9 11 11 12 13 13 12 12 12 12 10 8 8 7 8 8 8 10 10 9 9 8 9 7 6 7 7 4 5 6 5 5 5
7 8 5 1 2 6 5 5 6 6 6 6 8 5 14 11 14 13 13 15 10 1 9 11 12 12 11 8 7 7 8 11 13 13 12 12 12 10 10 9 10 8 7 6 5 7 8 8 8 8 9 9 8 9 8 8 9 6 6 7 7 6 6
4 5 3 3 2 4 3 2 5 4 1 4 1 2 6 4 8 13 13 11 10 8 11 11 9 11 13 11 10 10 9 12 11 12 12 11 12 11 9 8 7 7 8 7 7 5 5 6 6 6 7 7 9 9 8 9 9 8 8 8 9 9 8
2 6 8 5 2 2 3 2 3 4 2 3 1 0 2 5 14 13 9 6 10 13 12 13 11 11 11 10 9 9 10 11 12 11 11 10 9 10 8 7 7 7 6 6 6 6 6 6 5 5 6 7 8 7 7 6 7 8 8 7 7 7 8
2 3 9 0 0 3 2 2 7 4 6 5 1 2 5 8 7 3 8 14 13 14 13 13 13 12 10 9 5 7 9 10 12 12 11 11 9 8 8 6 6 4 4 5 6 5 6 6 7 5 4 7 7 7 7 7 7 9 9 9 8 7 5
2 7 5 5 3 2 0 4 6 8 4 5 3 4 5 7 13 17 13 12 11 11 11 11 11 11 11 11 9 6 7 7 9 11 10 8 9 9 8 6 5 4 4 4 5 5 6 7 5 4 5 6 6 6 7 9 8 8 8 8 7 6 7
2 3 2 3 2 1 5 4 4 4 7 4 6 10 9 9 14 15 13 12 10 9 11 10 11 12 12 10 9 8 8 9 7 11 10 9 7 8 8 8 5 4 4 3 4 4 5 5 5 6 4 6 6 5 4 7 8 8 7 6 7 7 7
2 0 2 1 0 1 3 1 2 4 3 4 4 7 4 5 7 9 12 10 10 9 12 16 12 13 11 9 5 7 9 9 11 10 9 9 7 8 9 8 6 4 4 4 4 3 5 5 6 5 5 5 6 6 5 5 6 6 6 6 7 7 6
0 1 3 1 2 2 2 1 1 3 6 8 6 6 4 4 9 6 8 8 12 10 9 10 10 12 12 8 5 8 9 10 11 9 8 8 8 8 10 7 6 5 3 3 4 4 5 6 6 6 5 5 6 6 5 4 5 5 5 5 4 5 7
5 2 1 0 0 1 6 3 5 7 7 8 6 4 1 1 7 9 5 7 8 10 11 8 8 8 7 3 2 4 9 7 6 8 9 8 7 10 9 5 5 4 2 2 4 5 7 6 7 7 4 7 7 6 6 6 4 4 4 4 4 5 4
2 2 1 0 2 1 1 3 5 7 7 5 6 3 1 2 2 8 8 7 10 11 9 8 9 7 9 7 6 7 11 11 8 8 7 7 7 8 7 5 4 4 6 7 8 7 7 6 8 7 7 7 6 5 5 5 6 4 3 3 3 3 4
4 2 2 2 2 1 0 4 4 4 4 4 7 4 2 5 3 5 9 14 14 10 8 8 8 5 7 7 8 10 10 10 8 8 7 7 8 8 7 5 6 7 7 6 6 6 5 6 8 7 7 6 6 5 5 5 5 5 3 3 2 1 3
2 2 3 1 1 1 4 5 7 4 2 2 4 1 3 3 10 12 12 12 11 12 11 9 8 7 9 11 9 9 8 7 8 8 8 8 8 6 5 8 7 7 8 7 6 6 6 7 7 7 7 7 5 4 5 4 4 5 2 3 2 4 3
2 1 2 1 1 2 1 3 4 4 3 2 0 2 6 8 9 8 8 9 7 11 11 9 10 10 10 9 8 7 6 7 8 8 8 6 5 5 5 8 8 6 6 6 7 6 7 7 6 6 6 5 5 4 5 5 5 5 4 3 3 4 3
2 4 2 1 1 3 4 5 3 0 3 3 4 4 5 6 7 7 6 6 6 8 10 9 9 9 6 7 7 6 5 7 8 8 6 5 5 6 7 7 6 5 5 4 4 5 5 6 6 6 6 5 5 5 6 7 7 7 6 6 6 5 2
2 1 0 3 3 4 6 8 4 4 4 4 4 6 4 4 5 4 6 6 8 9 10 10 7 5 4 6 6 5 5 7 7 7 6 6 6 6 6 7 5 4 3 3 3 4 4 5 6 5 5 5 6 6 6 6 7 7 7 6 6 4 3
1 1 4 4 2 5 8 7 5 6 5 4 4 5 6 4 4 4 7 6 8 7 7 7 4 3 4 6 5 5 5 6 6 6 6 6 6 5 4 5 4 2 3 3 3 4 4 4 4 4 4 4 4 4 5 5 6 7 7 7 6 6 6
3 1 3 5 5 6 8 9 7 6 4 2 2 5 4 4 4 6 4 5 7 7 5 5 4 2 4 3 6 7 4 5 6 6 6 5 5 4 4 2 1 2 2 3 3 4 3 3 3 3 4 3 3 3 3 3 4 5 6 7 7 6 6
2 0 1 4 4 4 6 9 9 8 6 5 5 6 6 5 5 6 6 6 7 6 4 4 3 1 3 2 6 5 4 5 5 5 5 5 4 4 2 0 2 1 2 3 3 3 2 2 2 3 3 4 4 3 3 3 3 4 5 5 6 6 7
1 1 3 5 3 4 4 4 5 7 8 7 7 6 6 5 5 7 5 4 6 5 4 7 6 3 2 4 4 4 5 5 5 5 4 4 4 1 1 4 4 4 2 2 2 2 2 2 3 4 4 4 4 4 3 3 2 3 4 5 6 7 7
0 1 2 5 2 1 5 6 6 5 3 5 4 6 7 7 6 6 6 5 4 6 5 9 8 6 4 4 5 5 4 2 4 5 4 3 2 3 4 4 3 2 0 1 2 2 3 3 4 4 5 5 6 6 4 3 2 3 3 4 4 6 6
1 1 2 3 1 3 4 5 6 6 5 4 4 2 2 5 5 7 6 6 5 4 3 5 6 6 7 5 6 5 3 5 5 4 2 2 4 3 3 2 1 2 4 1 3 4 4 5 4 4 4 5 6 5 5 5 4 4 3 3 3 5 5
3 4 3 5 3 3 3 4 5 5 4 4 3 1 1 4 8 7 6 7 9 6 5 6 6 8 7 8 7 5 5 6 5 3 4 5 4 2 1 2 3 3 2 4 4 4 3 3 4 4 5 5 6 6 5 4 3 3 3 3 4 5 5
3 0 2 3 4 3 2 2 1 3 4 4 2 3 3 5 3 1 5 7 6 10 8 7 7 7 8 7 8 8 7 6 6 5 5 3 1 1 3 4 1 2 3 3 3 3 3 3 4 4 5 5 6 7 6 5 4 4 4 4 4 4 4
Wind_Direction
186 211 134 232 111 121 235 244 209 246 202 240 53 222 210 202 115 19 213 91 76 78 26 333 298 124 118 130 127 129 128 125 86 62 31 31 247 152 161 117 54 50 45 16 3 346 19 64 61 57 155 168 163 166 167 173 173 176 174 178 175 176 176
187 213 218 263 208 139 355 273 325 329 319 16 99 239 347 128 125 146 168 136 152 147 147 200 197 143 155 134 119 126 134 103 87 107 111 198 286 43 53 61 78 93 115 190 222 214 55 78 98 97 24 326 176 166 169 171 172 174 178 175 176 176 174
97 147 55 320 325 19 18 40 292 81 329 304 343 86 256 50 101 109 67 142 146 216 141 167 159 148 137 126 122 99 76 80 74 66 54 39 72 40 19 11 13 67 147 186 195 313 27 50 30 133 93 4 38 159 171 171 174 176 175 175 173 172 173
137 186 79 257 300 342 347 5 296 182 112 218 315 194 237 156 108 128 96 345 263 8 150 152 143 141 136 121 107 99 86 77 70 64 57 52 50 61 42 11 2 347 353 22 64 55 35 1 347 349 72 79 296 168 155 178 177 172 170 173 168 171 175
146 242 119 211 186 140 209 244 287 305 239 3 313 212 196 176 134 146 139 155 275 182 6 329 138 140 125 116 102 95 86 75 72 60 60 40 43 60 51 31 26 20 22 48 64 93 128 208 309 278 152 180 215 224 133 119 167 166 166 154 138 127 114
156 274 162 236 218 230 236 177 227 215 217 237 260 295 214 251 108 154 137 108 81 91 114 150 246 122 118 113 106 97 92 89 74 71 63 46 42 53 47 33 19 20 48 49 49 50 62 55 22 17 30 358 28 292 103 80 32 343 97 94 112 127 137
170 203 183 193 38 354 3 349 283 270 257 151 97 20 319 48 29 76 99 113 33 263 292 6 310 134 111 108 108 110 108 97 89 73 67 62 53 51 44 37 25 30 51 60 63 56 56 51 57 49 29 63 67 20 19 52 69 40 45 347 104 135 139
118 152 166 134 192 36 358 266 239 292 34 70 93 151 153 102 105 86 80 63 145 155 59 51 195 351 115 114 109 104 96 91 89 86 74 67 64 54 37 29 33 29 44 72 83 89 73 54 70 96 103 5 295 150 137 127 125 131 154 195 172 153 156
27 13 360 0 356 19 298 280 216 66 38 39 70 102 20 87 135 139 125 132 154 139 149 136 292 225 126 116 112 110 109 109 98 87 80 74 72 68 44 31 39 39 39 38 53 47 45 51 44 18 97 125 220 244 130 130 143 141 150 159 154 172 181
58 76 59 312 303 270 286 279 297 74 47 54 39 41 43 89 314 93 106 100 92 142 156 151 167 165 123 119 119 112 104 103 103 97 91 83 79 79 67 45 46 49 43 38 49 66 55 50 39 66 50 61 103 90 103 140 131 131 149 159 160 162 164
59 214 212 244 234 224 206 255 308 62 59 57 100 108 86 106 160 104 147 137 146 158 133 115 141 136 114 108 110 112 113 109 109 110 101 90 83 83 81 67 59 59 48 43 35 30 45 78 81 96 104 50 56 60 58 39 50 59 60 129 154 170 171
263 246 20 348 352 12 348 311 270 27 66 56 27 56 88 141 92 56 100 137 143 149 149 156 165 135 115 110 113 115 114 114 108 107 104 99 91 85 84 75 67 66 71 59 45 40 30 14 41 70 55 58 41 43 60 45 49 56 31 60 150 153 160
294 337 325 338 345 20 341 318 338 330 97 92 5 47 75 121 131 147 162 148 133 143 138 135 124 118 112 109 96 104 115 124 130 111 104 100 91 89 81 76 65 59 64 62 63 49 35 32 26 29 46 53 62 67 54 42 39 34 21 28 54 63 69
279 189 327 21 9 19 353 39 52 19 26 25 48 24 53 118 128 142 144 129 115 122 121 121 124 113 102 100 109 117 116 105 99 100 94 89 87 78 77 75 68 58 56 69 70 61 49 40 31 26 21 36 49 52 66 58 49 6 21 40 67 80 83
340 359 2 356 272 350 353 349 50 44 18 358 23 64 114 122 134 128 126 109 96 1 94 92 97 101 98 83 67 84 99 103 92 86 84 89 86 81 76 73 73 58 52 58 69 71 63 52 45 36 29 26 28 36 45 54 47 29 39 54 60 56 58
320 318 297 246 285 281 269 358 338 62 360 300 66 12 67 77 120 123 115 115 126 130 119 112 101 92 87 85 76 70 75 87 86 82 84 80 85 81 68 57 50 56 52 36 41 62 67 64 60 53 44 37 30 24 25 47 55 45 44 48 58 60 52
304 285 302 284 218 273 316 269 262 313 33 14 352 336 164 109 132 133 136 134 144 141 136 130 122 114 105 93 94 92 82 86 93 95 84 70 73 90 80 65 58 50 43 32 29 47 57 42 39 50 62 48 37 31 31 33 58 51 47 46 52 60 60
243 275 273 207 268 216 239 28 4 246 238 152 252 280 89 93 106 122 137 144 140 137 137 137 139 131 128 121 112 113 120 118 107 107 106 106 92 81 83 76 69 59 44 28 19 36 67 49 31 27 58 60 40 29 26 26 52 54 45 36 31 33 45
306 333 307 105 246 252 200 32 30 359 233 163 200 312 111 97 117 119 117 127 134 132 137 143 130 121 119 118 119 100 90 99 108 108 107 104 113 111 108 99 79 62 49 33 26 27 46 39 21 25 43 65 51 36 25 33 40 52 43 35 28 28 26
304 353 350 111 218 295 44 48 33 338 35 50 132 40 25 82 111 119 128 138 131 127 134 131 123 130 129 124 126 125 99 96 119 124 121 120 114 119 121 119 107 80 64 49 26 31 51 37 16 7 16 65 62 44 33 47 47 44 38 31 24 22 19
203 210 296 172 177 63 70 68 77 23 42 43 81 116 38 62 107 115 124 128 122 105 105 122 135 137 129 116 130 146 113 98 82 91 102 111 109 108 118 107 94 77 48 26 8 45 56 31 12 359 353 68 71 51 34 52 68 56 40 26 16 13 14
224 269 340 25 12 170 271 135 110 25 58 66 86 84 96 83 90 92 121 121 116 121 114 116 108 105 114 130 143 140 132 108 109 115 108 95 89 80 81 97 98 86 50 5 358 70 74 26 350 347 339 66 63 46 27 27 69 69 58 35 19 17 3
350 317 150 221 129 283 266 28 58 68 68 76 66 69 47 262 132 141 127 117 107 106 101 106 112 110 108 124 197 145 118 104 104 97 84 85 82 85 81 73 75 78 71 30 22 56 52 23 344 342 25 64 57 42 23 12 42 70 66 53 37 15 357
249 284 17 277 137 206 271 59 55 59 69 55 65 72 286 262 133 145 147 133 114 112 106 89 65 88 116 113 98 83 83 81 73 75 77 70 62 70 71 58 62 62 54 44 37 36 27 8 4 28 33 41 46 39 24 18 26 25 41 62 65 26 346
260 307 291 83 15 326 311 71 70 51 46 71 88 156 213 304 41 67 89 89 99 103 95 88 95 92 117 115 85 74 75 77 73 62 67 70 65 59 49 39 32 50 47 45 41 32 19 31 26 20 29 34 36 32 23 29 17 348 6 30 33 20 340
252 214 224 219 113 151 86 56 61 18 46 94 159 201 292 17 48 60 84 91 94 89 90 101 106 111 96 86 80 83 85 85 80 76 63 57 53 49 43 57 55 46 34 21 22 28 24 34 29 24 21 26 11 27 12 9 358 323 356 12 4 336 313
292 352 298 105 167 272 2 131 41 17 101 203 247 82 45 58 50 60 79 92 87 92 93 86 86 80 70 75 84 89 88 86 88 84 76 67 59 51 46 55 43 43 45 26 16 10 14 27 29 27 22 15 359 5 358 349 336 331 347 6 345 309 288
180 185 197 213 238 84 42 72 123 335 117 164 95 79 68 48 64 58 68 63 75 90 103 100 92 99 108 106 104 100 99 101 97 94 90 81 61 54 52 62 49 35 45 27 21 11 20 20 15 9 17 9 6 7 12 347 347 343 344 337 319 302 326
81 71 201 252 295 86 87 100 119 113 70 55 76 91 91 86 73 93 77 71 69 75 82 85 94 102 104 120 121 112 100 95 93 98 98 91 83 74 60 59 49 33 20 27 25 24 26 19 10 7 11 16 1 4 350 345 341 339 335 334 328 340 358
153 135 131 156 151 110 112 104 111 98 79 66 84 97 75 52 84 83 121 113 96 88 84 91 56 70 111 112 111 100 100 102 106 93 86 78 76 75 68 61 34 19 24 25 36 35 20 17 8 352 359 16 354 340 331 337 336 336 342 335 327 319 312
65 264 196 164 155 123 118 118 100 97 102 101 58 69 74 125 97 86 78 102 109 106 96 99 123 130 105 97 103 108 103 92 90 92 88 89 89 86 81 83 68 48 21 43 35 33 4 359 343 336 350 321 312 296 309 325 323 330 328 325 321 316 308
144 68 121 68 89 121 120 135 136 144 140 105 70 87 80 60 72 96 98 93 93 104 109 112 109 82 65 82 108 111 107 98 94 94 94 86 77 73 80 124 90 76 54 45 15 14 335 314 311 308 291 293 286 294 298 305 316 326 317 314 312 310 308
264 181 56 11 69 90 94 84 105 144 139 125 116 108 112 112 99 110 122 129 139 150 163 153 137 131 133 93 87 89 99 99 97 102 102 100 86 67 42 48 55 61 46 13 349 328 301 298 323 332 322 308 305 292 287 280 305 320 304 310 313 311 310
68 10 356 317 146 160 26 31 41 50 75 104 122 147 152 157 160 154 148 172 181 172 170 151 143 161 144 128 106 90 95 99 100 94 87 86 88 69 67 55 41 7 328 232 264 306 354 10 9 352 342 331 326 315 296 279 259 262 285 304 308 301 300
107 268 35 17 102 120 53 14 8 32 33 65 99 132 166 173 180 176 167 168 172 176 146 133 138 153 163 150 130 122 104 99 107 110 111 104 92 78 59 16 297 260 264 280 67 48 23 2 348 334 323 317 307 301 309 300 277 260 256 266 283 294 301
49 42 352 13 44 49 358 19 4 5 23 16 27 39 37 192 189 187 188 185 185 192 173 147 141 133 141 144 142 156 161 141 128 132 114 99 102 97 246 228 240 257 60 62 61 52 29 351 323 319 317 308 296 286 280 279 282 285 272 266 272 278 282
188 140 11 351 349 348 325 306 321 5 347 37 29 27 11 9 341 275 204 195 175 176 179 168 171 170 171 163 161 170 160 152 145 140 124 112 97 267 238 234 243 103 97 96 76 53 17 338 326 321 312 316 333 337 338 333 325 311 295 292 285 279 283